Regional Weather Roundup
Issued by NWS

Home | Current Version | Previous Version | Graphics & Text | Print | Product List | Glossary On
Versions: 1 2 3 4 5 6 7 8 9 10 11 12 13 14 15 16 17 18 19 20 21 22 23 24 25 26 27 28 29 30 31 32 33 34 35 36 37 38 39 40 41 42 43 44 45 46 47 48 49 50
000
ASUS43 KLMK 070902
RWRKY
KENTUCKY REGIONAL WEATHER ROUNDUP
NATIONAL WEATHER SERVICE LOUISVILLE KY
400 AM EST SUN FEB 07 2016

NOTE "FAIR" INDICATES FEW OR NO CLOUDS BELOW 12,000 FEET
WITH NO SIGNIFICANT WEATHER AND/OR OBSTRUCTIONS TO VISIBILITY.

KYZ001>023-026-027-061>063-070>075-071000-
WESTERN AND SOUTH CENTRAL KENTUCKY

CITY           SKY/WX    TMP DP  RH WIND       PRES   REMARKS
PADUCAH        CLEAR     29  22  75 SW6       30.20F WCI  23
HENDERSON      CLEAR     32  21  64 SW7       30.19F WCI  26
OWENSBORO      CLEAR     34  25  70 S6        30.20F WCI  29
HOPKINSVILLE   CLEAR     32  21  65 SW2       30.21F
BOWLING GREEN  CLEAR     28  24  85 CALM      30.22F
GLASGOW        NOT AVBL
$$

KYZ024-025-028>034-038-045-046-053-071000-
NORTH CENTRAL KENTUCKY

CITY           SKY/WX    TMP DP  RH WIND       PRES   REMARKS
LOUISVILLE/SDF CLEAR     32  23  69 SE3       30.18F
LOUISVILLE/LOU CLEAR     31  24  75 CALM      30.19F
FORT KNOX      CLEAR     31  20  64 SW5       30.17F WCI  27
$$

KYZ035>037-039>044-047>052-055>060-089>105-071000-
NORTHEAST KENTUCKY

CITY           SKY/WX    TMP DP  RH WIND       PRES   REMARKS
LEXINGTON      CLEAR     33  21  61 SW5       30.18F WCI  29
COVINGTON      CLEAR     33  23  66 S7        30.15F WCI  27
FRANKFORT      PTCLDY    26  20  77 CALM      30.17F
$$

KYZ054-064>069-076>088-106>120-071000-
SOUTHEAST KENTUCKY

CITY           SKY/WX    TMP DP  RH WIND       PRES   REMARKS
JACKSON        CLEAR     34  19  54 W5        30.17F WCI  30
LONDON         CLEAR     25  21  85 CALM      30.18F
SOMERSET       NOT AVBL
MIDDLESBORO    NOT AVBL
MONTICELLO     SUNNY     19  17  92 VRB7      30.21F WCI  10
$$




USA.gov is the U.S. government's official web portal to all federal, state and local government web resources and services.